Location: Balaclava NSW 2575, Australia
(34.4510°S, 150.4953°E)
Time: 02:06:41
(UTC+10:00)

A-11 Canister half - Pass Details

Date: 22 June 2021
Orbit: 1513 x 1687 km, 47.2° (Epoch: 24 July)

Event Time Altitude Azimuth Distance (km) Brightness Sun altitude
Rises 17:16:56 0° 273° (W) 4,682 13.0 -4.8°
Reaches altitude 10° 17:20:11 10° 266° (W) 3,718 12.1 -5.4°
Maximum altitude 17:29:04 44° 195° (SSW) 2,075 9.7 -7.1°
Drops below altitude 10° 17:38:18 10° 125° (SE) 3,851 10.5 -8.8°
Enters shadow 17:38:33 - 124° (SE) 3,925 10.5 -8.9°
